ZY 1

导读 | 豆包AI

ZY 1(资源一号02C星)是中国自主研制的国土资源普查业务卫星,于北京时间2011年12月22日成功发射。它继承了资源一号卫星的遥感技术传统,搭载了高分辨率全色相机与多光谱相机,空间分辨率可达2.36米,幅宽54千米。该卫星主要服务于土地资源监管、矿山开发监测、地质灾害防控等国土资源微观调查业务,为我国国土资源精细化管理提供了重要的遥感数据支撑,是我国资源卫星从试验型走向业务化的关键节点。

Basic Information
目录编号:
38038
目录名称:
ZY 1
国际标识:
2011-079A
轨道中心:
EARTH
卫星名称:
ZY 1
卫星全名:
--
卫星状态:
在轨 (已飞行5196 天)
发射日期:
2011-12-22 UTC
国别 :
中国 (CN)
星等 :
--
Orbit Information
数据来源 国际轨道数据 AOE轨道数据
星历时间 2026-03-13T23:23:16+0800
11小时前
查看轨道信息
2026-03-07T13:00:00+0800
6天前
查看轨道信息
半长轴 7142.825km 7142.865km
偏心率 0.0005484 0.0004964
轨道倾角 98.416° 98.419°
近地点辐角 226.537° 253.233°
升交点赤经 141.917° 135.613°
平近点角 296.466° 104.686°
近地点 760.77km 761.182km
远地点 768.606km 768.274km
周期 100.130分钟 100.131分钟
每日圈数 14.381287 14.381166
Detailed Information
使用方式:
暂无
2D Orbit Map
3D Orbit Map
Orbit Altitude Analysis Chart
Orbit Inclination Analysis Chart
Orbit Comprehensive Analysis Chart
View Comprehensive Chart